Zurück zum Katalog

STARLINK-11273

AktivKommunikationVLEO
NORAD 60913·PAYLOAD·🇺🇸 United States

Gestartet Aug 31, 2024 von Cape Canaveral Space Force Station

Loading…

Nächste Überflüge (nächste 24 Stunden)

TLE

AktuellSource: CelesTrak SupGP

Epoche: Sep 14, 2026, 21:27 UTC

1 60913C 24154L   26257.89423611  .00040288  00000+0  33190-3 0  2578
2 60913  53.1569 278.4615 0001042 104.6704 207.9563 15.69687093    19

Verfolge STARLINK-11273 in Echtzeit mit AllMySat

Download on the App Store